Zurück zum Katalog

Grifon-1

AktivWissenschaftSSO
NORAD 67281·PAYLOAD·🇷🇺 Russia

Gestartet Dec 28, 2025 von Vostochny Cosmodrome

Loading…

Nächste Überflüge (nächste 24 Stunden)

TLE

AktuellSource: Space-Track

Epoche: Sep 14, 2026, 10:17 UTC

1 67281U 25313AK  26257.42895032  .00003923  00000-0  16818-3 0  9997
2 67281  97.3807 330.4642 0012932  52.5007 307.7403 15.23261856 39531

Verfolge Grifon-1 in Echtzeit mit AllMySat

Download on the App Store